sat.trackr.live / text

‹ back to catalog

STARLINK-37383

NORAD 69379 · 2026-123AC

PAYLOAD ACTIVE UNKNOWN

§ Identity

Operator
Country
US
Launch date
2026-06-04
Launch site
AFETR
Launch vehicle
Mass (kg)
RCS (m²)

Purposes: comms

External: N2YO · Heavens-Above · Gunter

§ Orbital elements

Epoch: 2026-09-19T05:31:31.617120Z

Period
93.85 min
Inclination
53.1565°
Eccentricity
0.0001064
Mean motion
15.34407455 rev/d
Perigee alt
462.0 km
Apogee alt
463.4 km
Semi-major
6,840.8 km
B*
5.4401e-4
RAAN
147.7421°
Arg perigee
102.3791°
Mean anomaly
257.7331°
Rev number
1,667

§ Raw data

STARLINK-373831 69379U 26123AC  26262.23022705  .00018053  00000+0  54401-3 0  99902 69379  53.1565 147.7421 0001064 102.3791 257.7331 15.34407455 16677

JSON: /api/v1/satellites/69379 · /tle

For live sub-satellite position, see the globe view (requires WebGL).

§ Visibility from observer

Set your observer location to see the next 7 days of passes ≥ 10°. The values pass through the URL so the page stays shareable.

No JS? Fill the form by hand. The geolocation button needs JavaScript.